HAST,Max TemperatureF,Mean TemperatureF,Min TemperatureF,Max Dew PointF,MeanDew PointF,Min DewpointF,Max Humidity, Mean Humidity, Min Humidity, Max Sea Level PressureIn, Mean Sea Level PressureIn, Min Sea Level PressureIn, Max VisibilityMiles, Mean VisibilityMiles, Min VisibilityMiles, Max Wind SpeedMPH, Mean Wind SpeedMPH, Max Gust SpeedMPH,PrecipitationIn, CloudCover, Events, WindDirDegrees
2012-11-1,39,37,35,33,30,26,89,73,50,30.59,30.56,30.53,10,10,6,14,9,,0.03,8,Rain-Snow,24
2012-11-2,41,37,33,34,31,27,93,78,53,30.53,30.44,30.35,10,10,10,15,7,,0.01,6,Rain-Snow,339
2012-11-3,42,38,33,34,32,29,93,81,65,30.34,30.30,30.27,10,10,10,10,6,,0.00,5,Rain,321
2012-11-4,44,40,35,34,32,28,89,76,54,30.28,30.26,30.24,10,10,10,17,9,,0.00,7,Rain,115
2012-11-5,41,39,37,34,30,26,87,69,54,30.27,30.25,30.23,10,10,6,23,14,,0.01,8,Rain,78
2012-11-6,41,38,36,34,30,27,82,70,51,30.25,30.15,30.07,10,10,10,30,24,36,0.00,8,Rain,48
2012-11-7,39,37,35,35,32,27,93,78,51,30.06,30.00,29.97,10,10,6,25,20,33,0.01,8,Rain-Snow,11
2012-11-8,42,38,35,39,32,24,93,76,42,29.97,29.88,29.79,10,10,6,22,12,22,0.02,7,Rain-Snow,267
2012-11-9,42,38,35,43,32,25,100,79,50,29.89,29.83,29.77,10,10,6,21,13,,0.06,8,Rain-Snow,324
2012-11-10,37,34,30,34,32,23,100,89,62,29.89,29.81,29.76,10,8,2,23,15,21,0.00,7,Rain-Snow,317
2012-11-11,37,32,28,30,27,24,87,74,57,29.89,29.81,29.56,10,10,5,23,10,32,0.00,4,Snow,348
2012-11-12,39,32,26,38,35,32,100,90,75,29.52,29.09,28.92,10,8,5,44,33,52,0.00,8,Rain-Snow,325
2012-11-13,41,38,36,37,33,26,93,81,57,29.82,29.33,29.05,10,10,6,43,37,58,0.94,7,Rain-Snow,274
2012-11-14,41,37,33,41,32,26,100,81,56,29.95,29.87,29.74,10,9,1,30,19,37,0.00,7,Rain-Snow,66
2012-11-15,45,40,34,46,44,38,100,98,81,29.71,29.52,29.43,10,3,0,34,24,40,0.59,8,Fog-Rain,153
2012-11-16,44,42,39,40,36,34,100,82,61,29.78,29.64,29.53,10,9,5,41,26,52,0.00,6,Rain,220
2012-11-17,44,40,37,37,35,31,89,78,64,30.27,30.01,29.79,10,10,9,31,23,40,0.00,4,Rain,251
2012-11-18,42,38,33,38,35,31,96,85,76,30.34,30.22,29.94,10,10,10,36,10,44,0.00,2,,106
2012-11-19,44,39,34,43,38,32,100,89,68,29.90,29.58,29.44,10,8,2,44,33,54,0.00,7,Rain,144
2012-11-20,42,40,39,37,33,29,86,71,57,30.17,30.03,29.80,10,10,10,31,21,34,0.00,7,,185
2012-11-21,42,40,39,40,36,34,96,82,68,30.15,30.03,29.78,10,9,2,31,25,38,0.00,6,Rain,111
2012-11-22,43,41,39,43,41,32,100,98,57,29.76,29.63,29.52,10,6,1,32,24,39,0.00,8,Rain,99
2012-11-23,43,41,39,40,38,35,100,92,76,29.89,29.78,29.56,10,10,6,26,14,,0.00,7,Rain,75
2012-11-24,43,41,39,45,41,32,100,97,73,29.82,29.49,29.43,10,4,0,39,22,47,0.00,8,Fog-Rain,204
2012-11-25,41,39,37,35,31,25,87,74,57,29.88,29.70,29.60,10,10,6,23,11,28,0.00,6,Rain,254
2012-11-26,41,37,33,35,29,24,97,72,48,30.41,30.14,29.90,10,10,6,26,16,32,0.00,2,Snow,252
2012-11-27,42,38,34,35,32,27,79,71,54,30.42,30.28,30.05,10,10,10,40,23,52,0.00,4,,126
2012-11-28,42,40,39,43,40,32,100,96,57,30.01,29.91,29.86,10,4,2,45,33,55,0.00,8,Rain,119
2012-11-29,42,40,39,42,40,38,100,97,93,30.10,29.99,29.91,10,6,2,13,9,,0.00,8,Rain,106
2012-11-30,41,38,35,38,37,34,100,94,89,30.30,30.19,30.10,10,9,1,9,6,,0.00,7,Rain,14